World > North America > United States > Washington   City of Chelan, WA

Chelan, Washington Regional Weather

Lat: 47.85N, Lon: 120.03W
Wx Zone: WAZ041Web Search

Helpful Tip: Abbreviated, 7 Day, 14 Day Forecasts. There is a weather forecast for every taste.

Feedback
Chelan Weather Map
UTC Time: 10/1/2020, 16:22
Your Time:

Chelan, WA Regional Weather

Expires:202010011700;;648657
ASUS46 KSEW 011620
RWRWA 

WASHINGTON REGIONAL WEATHER ROUNDUP
NATIONAL WEATHER SERVICE SEATTLE WA
900 AM PDT THU OCT 01 2020

NOTE:"FAIR" INDICATES FEW OR NO CLOUDS BELOW 12,000 FEET WITH NO 
SIGNIFICANT WEATHER AND/OR OBSTRUCTIONS TO VISIBILITY.


WAZ026-027-041>044-520-521-011700-
EAST SLOPES
  
CITY           SKY/WX    TMP DP  RH WIND       PRES   REMARKS
OMAK           MOSUNNY   57  45  64 N3        30.28S                  
WENATCHEE      SUNNY     55  49  80 W6        30.27R                  
ELLENSBURG     SUNNY     53  48  83 CALM      30.28R                  
YAKIMA         SUNNY     57  46  66 W5        30.26R                  
SUNNYSIDE ARPT SUNNY     54  49  83 CALM      30.25                   
YAKIMA TC      FAIR      55  43  64 CALM      30.24S                  
$$


SKY/WX - Weather  TMP - Temperature  DP - Dew Point  RH - Relative Humidity
WIND - Wind Direction/Speed PRES - Barometric Pressure VSB - Visibility
WCI - Wind Chill Index E13G22 Wind - East Wind 13 mph/Gusts of 22 mph